TimePDT,TemperatureF,Dew PointF,Humidity,Sea Level PressureIn,VisibilityMPH,Wind Direction,Wind SpeedMPH,Gust SpeedMPH,PrecipitationIn,Events,Conditions,WindDirDegrees,DateUTC
12:15 AM,53.6,51.8,94,29.92,3.0,Calm,Calm,-,N/A,,Overcast,0,2013-07-20 07:15:00
12:35 AM,53.6,51.8,94,29.92,3.0,Calm,Calm,-,N/A,,Overcast,0,2013-07-20 07:35:00
12:55 AM,53.6,51.8,94,29.92,2.5,Calm,Calm,-,N/A,,Overcast,0,2013-07-20 07:55:00
1:15 AM,53.6,51.8,94,29.92,2.5,Calm,Calm,-,N/A,,Mist,0,2013-07-20 08:15:00
1:35 AM,53.6,51.8,94,29.91,2.5,Calm,Calm,-,N/A,,Mist,0,2013-07-20 08:35:00
1:55 AM,53.6,51.8,94,29.91,2.5,NW,4.6,-,N/A,,Mist,320,2013-07-20 08:55:00
2:15 AM,53.6,51.8,94,29.91,2.5,WNW,4.6,-,N/A,,Overcast,300,2013-07-20 09:15:00
2:35 AM,53.6,51.8,94,29.90,3.0,WNW,5.8,-,N/A,,Overcast,290,2013-07-20 09:35:00
2:55 AM,53.6,51.8,94,29.90,2.5,NW,4.6,-,N/A,,Overcast,310,2013-07-20 09:55:00
3:15 AM,53.6,51.8,94,29.90,3.0,NW,6.9,-,N/A,,Overcast,310,2013-07-20 10:15:00
3:35 AM,53.6,51.8,94,29.90,3.0,WNW,4.6,-,N/A,,Overcast,290,2013-07-20 10:35:00
3:55 AM,51.8,51.8,100,29.89,2.5,WNW,4.6,-,N/A,,Overcast,300,2013-07-20 10:55:00
4:15 AM,51.8,50.0,94,29.89,3.0,Calm,Calm,-,N/A,,Overcast,0,2013-07-20 11:15:00
4:35 AM,51.8,50.0,94,29.89,3.0,NW,3.5,-,N/A,,Overcast,310,2013-07-20 11:35:00
4:55 AM,51.8,50.0,94,29.89,2.5,West,4.6,-,N/A,,Overcast,280,2013-07-20 11:55:00
5:15 AM,51.8,50.0,94,29.89,3.0,Calm,Calm,-,N/A,,Overcast,0,2013-07-20 12:15:00
5:35 AM,51.8,50.0,94,29.89,3.0,Calm,Calm,-,N/A,,Overcast,0,2013-07-20 12:35:00
5:55 AM,51.8,50.0,94,29.88,2.5,Calm,Calm,-,N/A,,Overcast,0,2013-07-20 12:55:00
6:15 AM,51.8,50.0,94,29.88,3.0,Calm,Calm,-,N/A,,Overcast,0,2013-07-20 13:15:00
6:35 AM,51.8,50.0,94,29.89,2.0,Calm,Calm,-,N/A,,Overcast,0,2013-07-20 13:35:00
6:55 AM,51.8,50.0,94,29.89,2.5,Calm,Calm,-,N/A,,Overcast,0,2013-07-20 13:55:00
7:15 AM,51.8,50.0,94,29.89,2.5,Calm,Calm,-,N/A,,Overcast,0,2013-07-20 14:15:00
7:35 AM,51.8,50.0,94,29.89,3.0,Calm,Calm,-,N/A,,Overcast,0,2013-07-20 14:35:00
7:55 AM,51.8,50.0,94,29.89,3.0,Calm,Calm,-,N/A,,Overcast,0,2013-07-20 14:55:00
8:15 AM,51.8,50.0,94,29.90,3.0,Calm,Calm,-,N/A,,Overcast,0,2013-07-20 15:15:00
8:35 AM,51.8,50.0,94,29.90,1.8,West,4.6,-,N/A,,Overcast,260,2013-07-20 15:35:00
8:55 AM,51.8,50.0,94,29.90,3.0,Calm,Calm,-,N/A,,Overcast,0,2013-07-20 15:55:00
9:15 AM,51.8,50.0,94,29.90,3.0,Calm,Calm,-,N/A,,Overcast,0,2013-07-20 16:15:00
9:35 AM,53.6,51.8,94,29.90,3.0,SW,4.6,-,N/A,,Overcast,220,2013-07-20 16:35:00
9:55 AM,53.6,51.8,94,29.90,3.0,WSW,5.8,-,N/A,,Overcast,250,2013-07-20 16:55:00
10:15 AM,53.6,51.8,94,29.90,3.0,WSW,4.6,-,N/A,,Overcast,250,2013-07-20 17:15:00
10:35 AM,53.6,51.8,94,29.90,5.0,SW,3.5,-,N/A,,Overcast,230,2013-07-20 17:35:00
10:55 AM,53.6,51.8,94,29.90,3.0,SW,3.5,-,N/A,,Overcast,230,2013-07-20 17:55:00
11:15 AM,53.6,51.8,94,29.90,4.0,SW,3.5,-,N/A,,Overcast,230,2013-07-20 18:15:00
11:35 AM,53.6,51.8,94,29.90,5.0,SW,5.8,-,N/A,,Overcast,230,2013-07-20 18:35:00
11:55 AM,53.6,51.8,94,29.89,5.0,SW,5.8,-,N/A,,Overcast,230,2013-07-20 18:55:00
12:15 PM,53.6,51.8,94,29.89,7.0,SW,5.8,-,N/A,,Overcast,220,2013-07-20 19:15:00
12:35 PM,55.4,51.8,88,29.89,6.0,South,4.6,-,N/A,,Overcast,170,2013-07-20 19:35:00
12:55 PM,55.4,51.8,88,29.88,5.0,SSW,5.8,-,N/A,,Overcast,210,2013-07-20 19:55:00
1:15 PM,55.4,51.8,88,29.88,5.0,South,6.9,-,N/A,,Overcast,170,2013-07-20 20:15:00
1:35 PM,55.4,51.8,88,29.87,5.0,SSW,8.1,-,N/A,,Overcast,200,2013-07-20 20:35:00
1:55 PM,57.2,51.8,82,29.87,5.0,South,8.1,-,N/A,,Haze,180,2013-07-20 20:55:00
2:15 PM,57.2,53.6,88,29.87,5.0,SSW,9.2,-,N/A,,Mostly Cloudy,210,2013-07-20 21:15:00
2:35 PM,57.2,51.8,82,29.87,6.0,SSW,10.4,-,N/A,,Haze,210,2013-07-20 21:35:00
2:55 PM,57.2,53.6,88,29.87,5.0,SSW,10.4,-,N/A,,Haze,200,2013-07-20 21:55:00
3:15 PM,57.2,51.8,82,29.86,5.0,SSW,8.1,-,N/A,,Haze,210,2013-07-20 22:15:00
3:35 PM,57.2,53.6,88,29.86,5.0,South,10.4,-,N/A,,Haze,180,2013-07-20 22:35:00
3:55 PM,55.4,51.8,88,29.86,5.0,South,8.1,-,N/A,,Mostly Cloudy,190,2013-07-20 22:55:00
4:15 PM,55.4,51.8,88,29.85,5.0,South,10.4,-,N/A,,Overcast,190,2013-07-20 23:15:00
4:35 PM,55.4,51.8,88,29.85,6.0,South,8.1,-,N/A,,Overcast,180,2013-07-20 23:35:00
4:55 PM,55.4,51.8,88,29.84,5.0,SSE,9.2,-,N/A,,Overcast,160,2013-07-20 23:55:00
5:15 PM,55.4,51.8,88,29.84,5.0,South,5.8,-,N/A,,Overcast,170,2013-07-21 00:15:00
5:35 PM,55.4,51.8,88,29.84,3.0,WSW,5.8,-,N/A,,Overcast,240,2013-07-21 00:35:00
5:55 PM,55.4,51.8,88,29.84,4.0,SW,5.8,-,N/A,,Overcast,230,2013-07-21 00:55:00
6:15 PM,53.6,51.8,94,29.83,4.0,WSW,6.9,-,N/A,,Overcast,240,2013-07-21 01:15:00
6:35 PM,53.6,51.8,94,29.83,4.0,SW,5.8,-,N/A,,Overcast,230,2013-07-21 01:35:00
6:55 PM,53.6,51.8,94,29.84,4.0,SSW,4.6,-,N/A,,Overcast,210,2013-07-21 01:55:00
7:15 PM,53.6,51.8,94,29.84,4.0,South,6.9,-,N/A,,Overcast,170,2013-07-21 02:15:00
7:35 PM,53.6,51.8,94,29.84,4.0,South,5.8,-,N/A,,Overcast,180,2013-07-21 02:35:00
7:55 PM,53.6,51.8,94,29.84,3.0,SSW,6.9,-,N/A,,Overcast,200,2013-07-21 02:55:00
8:15 PM,53.6,50.0,88,29.84,3.0,South,6.9,-,N/A,,Overcast,190,2013-07-21 03:15:00
8:35 PM,53.6,50.0,88,29.85,3.0,SSE,5.8,-,N/A,,Overcast,160,2013-07-21 03:35:00
8:55 PM,53.6,50.0,88,29.85,5.0,South,9.2,-,N/A,,Overcast,170,2013-07-21 03:55:00
9:15 PM,53.6,50.0,88,29.85,4.0,SSW,6.9,-,N/A,,Overcast,200,2013-07-21 04:15:00
9:35 PM,53.6,51.8,94,29.86,3.0,South,9.2,-,N/A,,Overcast,170,2013-07-21 04:35:00
9:55 PM,53.6,50.0,88,29.86,4.0,South,9.2,-,N/A,,Overcast,170,2013-07-21 04:55:00
10:15 PM,53.6,51.8,94,29.86,3.0,SSW,6.9,-,N/A,,Overcast,200,2013-07-21 05:15:00
10:35 PM,53.6,50.0,88,29.86,3.0,South,9.2,-,N/A,,Overcast,170,2013-07-21 05:35:00
10:55 PM,53.6,51.8,94,29.86,2.5,SSW,6.9,-,N/A,,Overcast,200,2013-07-21 05:55:00
11:15 PM,51.8,50.0,94,29.86,2.0,SSW,8.1,-,N/A,,Overcast,200,2013-07-21 06:15:00
11:35 PM,51.8,51.8,100,29.86,1.8,SSW,6.9,-,N/A,,Overcast,200,2013-07-21 06:35:00
11:55 PM,51.8,50.0,94,29.86,1.8,South,5.8,-,N/A,,Overcast,190,2013-07-21 06:55:00